Flag for U.S.A. Weather past 2 weeks in Philadelphia, Pennsylvania, U.S.A.

Now
37 °F

Mostly cloudy.


Feels Like: 34 °F
Forecast: 21 / 45 °F
Wind: 3 mph from Southeast

Location: Philadelphia International Airport

Current Time: Feb 1, 2015 at 8:10:36 PM

Latest Report: Feb 1, 2015 at 6:54 PM


Visibility: 10 mi

Pressure: 30.10 "Hg

Humidity: 57%

Dew point: 23 °F

Location of PhiladelphiaLocation

Historic Weather in Philadelphia — Graph

°F

Philadelphia temperature yesterday

Maximum temperature yesterday: 29 °F (at 3:54 PM)
Minimum temperature yesterday: 15 °F (at 4:54 AM)
Average temperature yesterday: 22 °F

Past Weeks' High & Low Weather Summary

 TemperatureHumidityPressure
High46 °F (Jan 25, 12:54 PM)100% (Jan 18, 1:54 PM)30.38 "Hg (Jan 18, 1:54 PM)
Low15 °F (Jan 31, 4:54 AM)24% (Jan 28, 2:54 PM)29.35 "Hg (Jan 24, 1:54 PM)
Average32 °F65%30.00 "Hg
* Reported Jan 17 6:54 PM — Feb 1 6:54 PM, Philadelphia, Weather by CustomWeather, © 2014

Note: Actual official high and low records may vary slightly from our data, if they occured in-between our weather recording intervals... More about our weather records

Advertising

Philadelphia weather history for previous 24 hours

 ConditionsComfort  
Time TempWeatherWind HumidityBarometerVisibility
6:54 PM
Feb 1
37 °FMostly cloudy.3 mph57%30.10 "Hg10 mi
5:54 PM38 °FOvercast.6 mph55%30.13 "Hg10 mi
4:54 PM38 °FMostly cloudy.7 mph53%30.13 "Hg10 mi
3:54 PM39 °FBroken clouds.5 mph57%30.13 "Hg10 mi
2:54 PM38 °FMostly cloudy.3 mph60%30.16 "Hg10 mi
1:54 PM38 °FMostly cloudy.7 mph60%30.17 "Hg10 mi
12:54 PM37 °FMostly cloudy.No wind62%30.19 "Hg10 mi
11:54 AM36 °FOvercast.9 mph64%30.23 "Hg10 mi
10:54 AM35 °FCloudy.12 mph52%30.26 "Hg10 mi
9:54 AM32 °FMostly cloudy.8 mph52%30.27 "Hg10 mi
8:54 AM28 °FOvercast.8 mph58%30.27 "Hg10 mi
7:54 AM27 °FOvercast.5 mph61%30.27 "Hg10 mi
6:54 AM27 °FOvercast.3 mph58%30.25 "Hg10 mi
5:54 AM26 °FOvercast.No wind57%30.26 "Hg10 mi
4:54 AM24 °FOvercast.3 mph65%30.26 "Hg10 mi
3:54 AM24 °FPassing clouds.6 mph62%30.25 "Hg10 mi
2:54 AM22 °FPassing clouds.6 mph62%30.26 "Hg10 mi
1:54 AM23 °FPassing clouds.7 mph60%30.26 "Hg10 mi
12:54 AM22 °FPassing clouds.6 mph62%30.26 "Hg10 mi
11:54 PM
Jan 31
23 °FPassing clouds.10 mph57%30.27 "Hg10 mi
10:54 PM22 °FClear.9 mph55%30.26 "Hg10 mi
9:54 PM23 °FClear.8 mph53%30.25 "Hg10 mi
8:54 PM25 °FClear.9 mph50%30.26 "Hg10 mi
Weather by CustomWeather, © 2014

See weather overviewHow to use our weather pages